#timestamp,LO_Frequency,Hit 
1596445215.2,286047001.6,N
1596445235.9,286047000.0,N
1596445255.7,286047002.1,N
1596445275.6,286046999.8,N
1596445295.4,286047001.7,N
1596445315.2,286047002.6,N
1596445335.1,286047001.3,N
1596445336.0,286047001.3,N
1596445355.8,286047001.4,N
1596445375.6,286047002.0,N
1596445395.5,286047002.1,N
1596445415.3,286047001.8,N
1596445435.1,286047001.6,N
1596445455.9,286047002.5,N
1596445475.7,286047002.0,N
1596445495.5,286047001.5,N
1596445515.4,286047001.4,N
1596445535.2,286047001.4,N
1596445555.0,286047004.0,P
1596445555.9,286047004.0,P
1596445575.8,286047000.3,N
1596445595.6,286047000.6,N
1596445615.4,286047000.9,N
1596445635.3,286047000.7,N
1596445655.1,286047001.0,N
1596445656.0,286047001.0,N
1596445675.8,286047000.9,N
1596445695.7,286047001.0,N
1596445715.5,286047001.0,N
1596445735.3,286047000.4,N
1596445755.2,286047000.2,N
1596445775.9,286047000.0,N
1596445795.7,286047000.3,N
1596445815.6,286047000.5,N
1596445835.4,286046999.9,N
1596445855.2,286047000.0,N
1596445875.1,286046999.9,N
1596445876.0,286046999.9,N
1596445895.8,286047000.6,N
1596445915.6,286046999.8,N
1596445935.5,286047002.5,N
1596445955.3,286047000.2,N
1596445975.1,286047000.2,N
1596445995.8,286046999.8,N
1596446015.7,286047001.7,N
1596446035.5,286047003.8,P
1596446055.4,286047001.8,N
1596446075.2,286047001.9,N
1596446095.0,286047003.7,P
1596446095.9,286047003.7,P
1596446115.8,286047002.4,P
1596446135.6,286047000.1,N
1596446155.4,286047002.8,N
1596446175.3,286047001.7,N
1596446195.1,286047004.4,P
1596446215.8,286047000.7,N
1596446235.7,286047000.6,N
1596446255.5,286046998.1,N
1596446275.3,286046998.5,N
1596446295.2,286047000.5,N
1596446315.9,286046998.5,N
1596446335.7,286047000.6,N
1596446355.6,286047001.2,N
1596446375.4,286046999.9,N
1596446395.2,286046998.2,N
1596446415.1,286047000.9,N
1596446416.0,286047000.9,N
1596446435.8,286047001.2,N
1596446455.6,286047000.4,N
1596446475.5,286046998.1,N
1596446495.3,286047001.0,N
1596446515.1,286046998.2,N
1596446535.9,286047000.7,N
1596446555.7,286047000.6,N
1596446575.5,286046998.4,N
1596446595.4,286046998.6,N
1596446615.2,286047000.9,N
1596446635.0,286047000.6,N
1596446635.9,286047000.6,N
1596446655.8,286047000.0,N
1596446675.6,286047000.8,N
1596446695.4,286047000.2,N
1596446715.3,286047000.9,N
1596446735.1,286046999.9,N
1596446736.0,286046999.9,N
1596446755.8,286047001.1,N
1596446775.7,286047000.6,N
1596446795.5,286047000.3,N
1596446815.3,286047000.0,N
1596446835.2,286046998.2,N
1596446855.9,286047001.0,N
1596446875.7,286047001.2,N
1596446895.6,286047001.2,N
1596446915.4,286046998.2,N
1596446935.2,286046999.9,N
1596446955.1,286046999.9,N
1596446956.0,286046999.9,N
1596446975.8,286047001.4,N
1596446995.6,286047004.4,P
1596447015.5,286047003.0,N
1596447035.3,286047005.9,P
1596447055.2,286047007.2,P
1596447075.9,286047001.8,N
1596447095.7,286047003.2,N
1596447115.5,286047005.8,N
1596447135.4,286047005.0,N
1596447155.2,286047005.0,N
1596447175.1,286047007.3,P
1596447176.0,286047007.3,P
1596447195.8,286047001.9,N
1596447215.6,286047003.5,N
1596447235.5,286047003.1,N
1596447255.3,286047004.6,N
1596447275.1,286047004.6,N
1596447295.9,286047004.7,N
1596447315.7,286047006.8,P
1596447335.5,286047004.1,P
1596447355.4,286047003.5,N
1596447375.2,286047003.2,N
1596447395.0,286047003.3,N
1596447395.9,286047003.3,N
1596447415.8,286047005.6,P
1596447435.6,286046998.1,N
1596447455.4,286047001.1,N
1596447475.3,286046999.7,N
1596447495.1,286046998.1,N
1596447515.8,286047000.1,N
1596447535.7,286047000.2,N
1596447555.5,286047000.5,N
1596447575.3,286047002.7,N
1596447595.2,286047004.9,N
1596447615.9,286047002.4,N
1596447635.7,286047001.7,N
1596447655.6,286047002.0,N
1596447675.4,286047002.4,N
1596447695.2,286047001.9,N
1596447715.1,286047003.8,N
1596447716.0,286047003.8,N
1596447735.8,286047003.7,N
1596447755.6,286047001.5,N
1596447775.5,286047004.4,N
1596447795.3,286047003.6,N
1596447815.1,286047003.3,N
1596447835.9,286047002.9,N
1596447855.7,286047003.2,N
1596447875.5,286047005.2,N
1596447895.4,286047005.9,N
1596447915.2,286047005.6,N
1596447935.0,286047003.0,N
1596447935.9,286047003.0,N
1596447955.8,286047003.2,N
1596447975.6,286047003.9,N
1596447995.4,286047003.4,N
1596448015.2,286047003.4,N
1596448035.1,286047003.0,N
1596448036.0,286047003.0,N
1596448055.8,286047003.5,N
1596448075.7,286047006.0,P
1596448095.5,286047000.1,N
1596448115.3,286047000.6,N
1596448135.2,286046999.8,N
1596448155.9,286047000.8,N
1596448175.7,286047001.0,N
1596448195.6,286047000.8,N
1596448215.4,286047000.7,N
1596448235.2,286047000.0,N
1596448255.1,286047000.9,N
1596448256.0,286047000.9,N
1596448275.8,286046999.7,N
1596448295.6,286047001.2,N
1596448315.5,286047000.7,N
1596448335.3,286047001.0,N
1596448355.1,286047000.8,N
1596448375.9,286047000.8,N
1596448395.7,286047000.0,N
1596448415.5,286046998.3,N
1596448435.3,286046998.6,N
1596448455.2,286046998.5,N
1596448475.0,286046998.4,N
1596448475.9,286046998.4,N
1596448495.7,286046998.9,N
1596448515.6,286046998.3,N
1596448535.4,286046998.3,N
1596448555.2,286046998.5,N
1596448575.1,286046999.6,N
1596448576.0,286046999.6,N
1596448595.8,286046998.7,N
1596448615.6,286046998.3,N
1596448635.5,286046999.3,N
1596448655.3,286046998.4,N
1596448675.1,286046998.6,N
1596448695.9,286046998.6,N
1596448715.7,286046998.3,N
1596448735.5,286046998.4,N
1596448755.4,286046998.6,N
1596448775.2,286046999.0,N
1596448795.0,286046999.1,N
1596448795.9,286046999.1,N
